[[{"header":{"parameterUnit":"m.s-1","parameterCategory":1,"la1":30.2991,"la2":30.254,"lo1":-89.0895,"lo2":-89.0444,"dy":0.0017,"dx":0.0017,"nx":28,"ny":28,"refTime":"2025-06-02T03:00:00:Z","depth":0,"parameterNumber":2,"parameterNumberName":"U-component_of_WINDS"},"data":[0,0,0,0,0,0,0,0,0,0,0,0,0,0,0,0,0,0,0,0,0,0,0,0,0,0,0,0,0,0,0,0,0,0,0,0,0,0,0,0,0,0,0,0,0,0,0,0,0,0,0,0,0,0,0,0,0,0,-5.1602,-5.1601,0,-5.1548,-5.1547,-5.1547,-5.1384,-5.138,-5.1377,-5.1373,-5.1322,-5.1324,-5.1326,0,0,0,0,0,0,0,0,0,0,0,0,0,-5.1569,-5.1571,-5.1602,-5.1601,-5.1601,-5.1548,-5.1547,-5.1547,-5.1384,-5.138,-5.1376,-5.1372,-5.1321,-5.1324,-5.1326,0,0,0,0,0,0,0,0,0,0,0,0,0,-5.1557,-5.1571,-5.1602,-5.1513,-5.1505,-5.1548,-5.1547,-5.1546,-5.1385,-5.138,-5.1375,-5.137,-5.132,-5.1323,-5.1326,-5.1452,0,0,-5.1335,-5.1337,0,0,0,0,0,0,0,0,-5.1558,-5.1558,-5.1527,-5.152,-5.151,-5.1467,-5.1517,-5.1515,-5.1387,-5.1431,-5.1373,-5.1367,-5.1375,-5.1373,-5.1375,-5.145,-5.1448,-5.1336,-5.1337,-5.1339,-5.1339,0,0,0,0,0,0,0,-5.1559,-5.1559,-5.1581,-5.1527,-5.1517,-5.1478,-5.147,-5.1516,-5.1434,-5.1427,-5.1415,-5.141,-5.1369,-5.1372,-5.1372,-5.1447,-5.1335,-5.1338,-5.134,-5.1341,-5.1625,-5.1631,0,0,0,0,0,0,-5.1572,-5.1561,-5.1582,-5.1579,-5.1521,-5.1483,-5.1474,-5.1486,-5.1433,-5.1419,-5.1415,-5.1403,-5.137,-5.1369,-5.137,-5.1515,-5.1339,-5.1341,-5.1343,-5.162,-5.1627,-5.1633,0,0,0,0,0,0,-5.1572,-5.1575,-5.1584,-5.1567,-5.1565,-5.1489,-5.1504,-5.1488,-5.1491,-5.1424,-5.1409,-5.1433,-5.1366,-5.1366,-5.1433,-5.1511,-5.1343,-5.1345,-5.1613,-5.1622,-5.163,-5.1807,0,0,0,0,0,0,-5.1571,-5.1576,-5.1622,-5.1569,-5.1567,-5.1648,-5.1509,-5.1491,-5.1496,-5.148,-5.1437,-5.1425,-5.1361,-5.143,-5.1436,-5.1512,-5.1348,-5.1605,-5.1617,-5.1627,-5.1794,-5.1821,-5.1843,0,0,0,0,0,-5.1571,-5.1674,-5.1625,-5.1629,-5.1622,-5.1653,-5.1651,-5.1575,-5.1503,-5.1549,-5.1507,-5.1426,-5.1502,-5.1438,-5.1444,-5.1522,-5.16,-5.1614,-5.1626,-5.1783,-5.1815,-5.1843,0,0,0,0,0,0,-5.1739,-5.1666,-5.161,-5.1699,-5.1684,-5.1625,-5.1681,-5.1612,-5.1617,-5.1602,-5.1509,-5.15,-5.1582,-5.1558,-5.1489,-5.1643,-5.1538,-5.1553,-5.1655,-5.1685,-5.171,-5.1714,-5.135,0,0,0,0,0,-5.1786,-5.1816,-5.1751,-5.1836,-5.1831,-5.1758,-5.1768,-5.1711,-5.1691,-5.1684,-5.1646,-5.1631,-5.1651,-5.1667,-5.1682,-5.179,-5.1779,-5.1847,-5.1871,-5.1892,-5.1906,-5.1964,-5.1993,-5.1675,-5.1675,-5.1675,0,0,-5.1885,-5.1848,-5.1873,-5.1869,-5.185,-5.1884,-5.1753,-5.1794,-5.182,-5.169,-5.1752,-5.1724,-5.1701,-5.179,-5.1828,-5.1773,-5.1992,-5.1909,-5.1926,-5.1928,-5.198,-5.201,-5.2037,-5.1684,-5.1683,-5.1681,0,0,-5.2082,-5.2057,-5.2125,-5.2109,-5.2082,-5.2033,-5.205,-5.2002,-5.1979,-5.2039,-5.1943,-5.1973,-5.2009,-5.1997,-5.1996,-5.2192,-5.2118,-5.2199,-5.2329,-5.2386,-5.2411,-5.2433,-5.2505,-5.2531,-5.2213,-5.2214,-5.2214,0,-5.2208,-5.2254,-5.217,-5.2218,-5.222,-5.2104,-5.2175,-5.2163,-5.2143,-5.2148,-5.2087,-5.2132,-5.2108,-5.2194,-5.2242,-5.2244,-5.2262,-5.2204,-5.2414,-5.2435,-5.2454,-5.2521,-5.2548,-5.2224,-5.2223,-5.2222,-5.2221,0,-5.2412,-5.2446,-5.2505,-5.2488,-5.2496,-5.2556,-5.2482,-5.2501,-5.2444,-5.2403,-5.2467,-5.2435,-5.2442,-5.2458,-5.2403,-5.2537,-5.2504,-5.2431,-5.2324,-5.2496,-5.2558,-5.2583,-5.2238,-5.2235,-5.2232,-5.2229,0,0,-5.2712,-5.2648,-5.2672,-5.2663,-5.2625,-5.2651,-5.2706,-5.2712,-5.2732,-5.2722,-5.2767,-5.2802,-5.2734,-5.2733,-5.2676,-5.2726,-5.2885,-5.2646,-5.2644,-5.2693,-5.3033,-5.3089,-5.312,-5.2836,-5.284,-5.2844,-5.3035,0,-5.2899,-5.2988,-5.2915,-5.3018,-5.305,-5.2942,-5.299,-5.2973,-5.2936,-5.2959,-5.2918,-5.2945,-5.2853,-5.2852,-5.2896,-5.2856,-5.2952,-5.2841,-5.2879,-5.2881,-5.2889,-5.3152,-5.3211,-5.3393,-5.3058,-5.3062,-5.3065,0,-5.3129,-5.313,-5.3237,-5.3194,-5.3204,-5.3249,-5.325,-5.3272,-5.3252,-5.3222,-5.3222,-5.3152,-5.3205,-5.31,-5.3173,-5.3099,-5.3111,-5.3094,-5.3099,-5.31,-5.2984,-5.3161,-5.3448,-5.3477,-5.3102,-5.3099,-5.3096,0,-5.334,-5.3367,-5.3435,-5.3431,-5.3382,-5.3417,-5.3398,-5.3372,-5.3382,-5.3383,-5.3388,-5.3397,-5.3402,-5.3411,-5.3346,-5.3275,-5.3428,-5.3317,-5.3406,-5.3408,-5.3443,-5.3442,-5.3738,-5.345,-5.345,-5.3449,-5.3448,0,-5.3557,-5.3627,-5.3529,-5.3571,-5.3647,-5.3563,-5.3641,-5.3611,-5.359,-5.3625,-5.3532,-5.3568,-5.3479,-5.3506,-5.3456,-5.3525,-5.3528,-5.3506,-5.3492,-5.3515,-5.3518,-5.3522,-5.3508,-5.3456,-5.3455,-5.3453,-5.3452,0,-5.3805,-5.3742,-5.3808,-5.3757,-5.3746,-5.3805,-5.3761,-5.3799,-5.3756,-5.3803,-5.3809,-5.3743,-5.377,-5.3706,-5.3724,-5.369,-5.379,-5.3755,-5.3797,-5.3787,-5.388,-5.3873,-5.4189,-5.4227,-5.3914,-5.3917,-5.392,0,-5.3948,-5.3999,-5.3954,-5.397,-5.3957,-5.3985,-5.3994,-5.3914,-5.3928,-5.391,-5.3951,-5.397,-5.3981,-5.4031,-5.3985,-5.4,-5.3965,-5.4075,-5.3967,-5.3989,-5.3968,-5.3967,-5.3972,-5.4098,-5.4102,-5.4105,-5.4107,0,-5.4209,-5.4176,-5.4191,-5.4198,-5.4211,-5.4212,-5.4207,-5.4227,-5.4142,-5.4162,-5.4189,-5.4198,-5.4217,-5.4238,-5.4242,-5.4224,-5.4154,-5.4142,-5.4163,-5.4188,-5.421,-5.4201,-5.3859,-5.4135,-5.4132,-5.413,-5.4129,-5.4127,-5.4409,-5.445,-5.4425,-5.4447,-5.4435,-5.4432,-5.4466,-5.4428,-5.4448,-5.4456,-5.4409,-5.4447,-5.4427,-5.4425,-5.4415,-5.4445,-5.4395,-5.4426,-5.4434,-5.4443,-5.4459,-5.4205,-5.4445,-5.4444,-5.4444,-5.4443,-5.4442,0,-5.4667,-5.4646,-5.4666,-5.4662,-5.468,-5.461,-5.4601,-5.4621,-5.4655,-5.4642,-5.4655,-5.4687,-5.4708,-5.4665,-5.468,-5.4712,-5.468,-5.4719,-5.4716,-5.4714,-5.4502,-5.4483,-5.4745,-5.4745,-5.4744,-5.4744,-5.4744,-5.4744,-5.4803,-5.4869,-5.4834,-5.4894,-5.4872,-5.4908,-5.4909,-5.4908,-5.4897,-5.4937,-5.4953,-5.4925,-5.4901,-5.4913,-5.493,-5.4917,-5.4927,-5.4978,-5.4954,-5.4758,-5.4728,-5.47,-5.4681,-5.4981,-5.4981,-5.5163,-5.5164,-5.5166]},{"header":{"parameterUnit":"m.s-1","parameterCategory":1,"la1":30.2991,"la2":30.254,"lo1":-89.0895,"lo2":-89.0444,"dy":0.0017,"dx":0.0017,"nx":28,"ny":28,"refTime":"2025-06-02T03:00:00:Z","depth":0,"parameterNumber":3,"parameterNumberName":"V-component_of_WINDS"},"data":[0,0,0,0,0,0,0,0,0,0,0,0,0,0,0,0,0,0,0,0,0,0,0,0,0,0,0,0,0,0,0,0,0,0,0,0,0,0,0,0,0,0,0,0,0,0,0,0,0,0,0,0,0,0,0,0,0,0,-1.2814,-1.2814,0,-1.2791,-1.2791,-1.2791,-1.2752,-1.2751,-1.275,-1.275,-1.2727,-1.2727,-1.2727,0,0,0,0,0,0,0,0,0,0,0,0,0,-1.2824,-1.2824,-1.2814,-1.2814,-1.2814,-1.2791,-1.2791,-1.2791,-1.2752,-1.2751,-1.275,-1.2749,-1.2727,-1.2727,-1.2727,0,0,0,0,0,0,0,0,0,0,0,0,0,-1.2812,-1.2824,-1.2814,-1.2792,-1.2789,-1.2792,-1.2791,-1.2791,-1.2752,-1.2751,-1.275,-1.2749,-1.2727,-1.2727,-1.2727,-1.275,0,0,-1.2727,-1.2727,0,0,0,0,0,0,0,0,-1.2813,-1.2812,-1.2795,-1.2793,-1.2791,-1.2773,-1.2786,-1.2777,-1.2752,-1.2766,-1.275,-1.2748,-1.2743,-1.2742,-1.274,-1.2748,-1.2747,-1.2727,-1.2727,-1.2727,-1.2727,0,0,0,0,0,0,0,-1.2814,-1.2813,-1.2805,-1.2795,-1.2792,-1.2783,-1.278,-1.2784,-1.2761,-1.2765,-1.2762,-1.276,-1.2742,-1.274,-1.2739,-1.2747,-1.2727,-1.2727,-1.2727,-1.2727,-1.2772,-1.2774,0,0,0,0,0,0,-1.2818,-1.2814,-1.2806,-1.2805,-1.2799,-1.2783,-1.278,-1.278,-1.2761,-1.2757,-1.2761,-1.2758,-1.274,-1.2739,-1.2738,-1.2763,-1.2727,-1.2727,-1.2727,-1.2771,-1.2773,-1.2774,0,0,0,0,0,0,-1.2819,-1.2818,-1.2807,-1.2808,-1.2806,-1.2784,-1.2785,-1.278,-1.2778,-1.2758,-1.2754,-1.2763,-1.2739,-1.2738,-1.2747,-1.2762,-1.2727,-1.2728,-1.277,-1.2772,-1.2773,-1.2814,0,0,0,0,0,0,-1.2819,-1.2818,-1.2827,-1.2809,-1.2806,-1.2816,-1.2785,-1.278,-1.2779,-1.2775,-1.2759,-1.2755,-1.2738,-1.2747,-1.2747,-1.2761,-1.2728,-1.2769,-1.2771,-1.2773,-1.2811,-1.2816,-1.2821,0,0,0,0,0,-1.2819,-1.2839,-1.2827,-1.2827,-1.2816,-1.2817,-1.2816,-1.2796,-1.278,-1.2788,-1.2775,-1.2756,-1.276,-1.2748,-1.2748,-1.2763,-1.2768,-1.277,-1.2773,-1.2808,-1.2815,-1.2821,0,0,0,0,0,0,-1.286,-1.2836,-1.2823,-1.2837,-1.283,-1.281,-1.282,-1.2803,-1.28,-1.2797,-1.2772,-1.2769,-1.2781,-1.2772,-1.2759,-1.2783,-1.2761,-1.2763,-1.2788,-1.2794,-1.28,-1.2801,-1.2728,0,0,0,0,0,-1.287,-1.2872,-1.2852,-1.2867,-1.2863,-1.2843,-1.2842,-1.2827,-1.2818,-1.2815,-1.2802,-1.2794,-1.2793,-1.2793,-1.2792,-1.2809,-1.2805,-1.2819,-1.2824,-1.2829,-1.2831,-1.284,-1.2846,-1.2782,-1.2782,-1.2782,0,0,-1.2892,-1.2879,-1.2882,-1.2874,-1.2867,-1.2869,-1.284,-1.2845,-1.2846,-1.2815,-1.2823,-1.2813,-1.2802,-1.2816,-1.2821,-1.2809,-1.2848,-1.2832,-1.2836,-1.2836,-1.2843,-1.2849,-1.2854,-1.2784,-1.2784,-1.2783,0,0,-1.2933,-1.2924,-1.2935,-1.2927,-1.2916,-1.2902,-1.2904,-1.2888,-1.288,-1.2887,-1.2864,-1.2865,-1.2865,-1.2858,-1.2855,-1.2893,-1.2875,-1.2893,-1.292,-1.2928,-1.2933,-1.2938,-1.2951,-1.2956,-1.2895,-1.2895,-1.2895,0,-1.2961,-1.2965,-1.2943,-1.2949,-1.2946,-1.2917,-1.2928,-1.2922,-1.291,-1.2909,-1.2896,-1.2894,-1.2885,-1.2896,-1.2905,-1.2904,-1.2906,-1.2895,-1.2934,-1.2939,-1.2942,-1.2955,-1.296,-1.2898,-1.2897,-1.2897,-1.2897,0,-1.3,-1.3003,-1.3014,-1.3003,-1.3001,-1.3009,-1.2988,-1.2989,-1.2975,-1.2962,-1.2969,-1.2957,-1.2952,-1.2954,-1.2939,-1.2963,-1.2956,-1.2939,-1.2916,-1.2951,-1.2962,-1.2967,-1.2901,-1.29,-1.2899,-1.2899,0,0,-1.3066,-1.3043,-1.3047,-1.3042,-1.3026,-1.3028,-1.3035,-1.303,-1.3031,-1.3024,-1.3029,-1.3029,-1.3013,-1.3009,-1.2994,-1.3002,-1.3032,-1.2984,-1.2983,-1.2993,-1.3056,-1.3069,-1.3075,-1.302,-1.3021,-1.3021,-1.3057,0,-1.3104,-1.3115,-1.3095,-1.311,-1.3112,-1.3085,-1.3091,-1.3082,-1.3071,-1.3071,-1.3057,-1.3058,-1.3037,-1.3034,-1.3041,-1.3027,-1.3044,-1.3024,-1.3024,-1.3025,-1.3028,-1.3081,-1.3094,-1.3129,-1.3061,-1.3062,-1.3063,0,-1.315,-1.3145,-1.316,-1.3143,-1.3144,-1.3149,-1.3143,-1.3143,-1.3133,-1.3124,-1.3119,-1.3101,-1.3106,-1.3084,-1.3091,-1.3078,-1.3077,-1.307,-1.3071,-1.307,-1.3046,-1.3081,-1.3139,-1.3144,-1.3069,-1.3069,-1.3068,0,-1.3196,-1.3193,-1.3202,-1.3198,-1.3179,-1.3183,-1.3176,-1.3164,-1.3162,-1.3157,-1.3155,-1.315,-1.3148,-1.3144,-1.3125,-1.3111,-1.3135,-1.3111,-1.3127,-1.3128,-1.3133,-1.3133,-1.3192,-1.3133,-1.3133,-1.3133,-1.3133,0,-1.324,-1.3251,-1.3222,-1.3228,-1.3238,-1.3215,-1.3227,-1.3216,-1.3206,-1.3209,-1.3185,-1.3188,-1.3163,-1.3163,-1.3148,-1.3156,-1.3155,-1.3147,-1.3143,-1.315,-1.3151,-1.3148,-1.3146,-1.3134,-1.3134,-1.3133,-1.3133,0,-1.3294,-1.3275,-1.3283,-1.3264,-1.3259,-1.3268,-1.3252,-1.3256,-1.3243,-1.3246,-1.3246,-1.3225,-1.3224,-1.3205,-1.32,-1.3189,-1.3203,-1.3195,-1.3207,-1.3204,-1.3221,-1.322,-1.328,-1.3287,-1.3224,-1.3225,-1.3226,0,-1.3323,-1.333,-1.3312,-1.3312,-1.3306,-1.3306,-1.3304,-1.3282,-1.328,-1.3269,-1.3274,-1.3271,-1.3268,-1.3267,-1.3252,-1.3247,-1.3239,-1.326,-1.3238,-1.3244,-1.3239,-1.3238,-1.3239,-1.3265,-1.3266,-1.3266,-1.3267,0,-1.3377,-1.3367,-1.3365,-1.336,-1.3358,-1.3353,-1.3346,-1.3347,-1.3323,-1.3322,-1.3321,-1.3318,-1.3313,-1.331,-1.3303,-1.3295,-1.3277,-1.3274,-1.3277,-1.3284,-1.329,-1.3287,-1.322,-1.3273,-1.3272,-1.3272,-1.3271,-1.3271,-1.3419,-1.3424,-1.3412,-1.341,-1.3403,-1.3397,-1.34,-1.3387,-1.3385,-1.3379,-1.3366,-1.3367,-1.3355,-1.3344,-1.3337,-1.3337,-1.3326,-1.3332,-1.3333,-1.3334,-1.3338,-1.329,-1.3336,-1.3336,-1.3336,-1.3335,-1.3335,0,-1.3471,-1.3462,-1.3461,-1.3452,-1.3451,-1.3434,-1.3425,-1.3425,-1.3426,-1.3417,-1.3414,-1.3412,-1.3409,-1.3393,-1.3389,-1.3392,-1.3383,-1.3391,-1.3391,-1.3389,-1.3348,-1.3345,-1.3398,-1.3398,-1.3398,-1.3398,-1.3398,-1.3398,-1.3498,-1.3506,-1.3495,-1.3499,-1.3489,-1.349,-1.3486,-1.3481,-1.3473,-1.3473,-1.347,-1.346,-1.3448,-1.3442,-1.3438,-1.3434,-1.3433,-1.3444,-1.3436,-1.3398,-1.3392,-1.3386,-1.3384,-1.3444,-1.3444,-1.3478,-1.3478,-1.3478]}]]